Location: Songkhla
(7.2000°N, 100.6000°E)
Time: 20:18:35
(UTC+07:00)

GPS 2-15 Rocket1 - Pass Details

Date: 16 April 2026
Orbit: 607 x 651 km, 19.8° (Epoch: 20 May)

Event Time Altitude Azimuth Distance (km) Brightness Sun altitude
Rises 19:03:36 0° 288° (WNW) 2,883 8.7 -10.0°
Reaches altitude 10° 19:05:58 10° 287° (WNW) 1,970 7.2 -10.5°
Maximum altitude 19:10:35 81° 201° (SSW) 620 3.0 -11.7°
Enters shadow 19:13:59 18° 114° (ESE) 1,510 4.4 -12.5°
